User: anonymous   Login
Location: Unspecified
(0.0000°N, 0.0000°E)
Time: 14:56:54
(UTC+00:00)
Language:

S-56A Canister/Altair - Orbit

View from above orbital plane
View from above orbital plane
View from above satellite
View from above satellite

Ground track
Ground track

The orbit data is extracted from the following two-line orbital elements,

1    82U 61004B   19051.83145127 +.00000099 +00000-0 +10570-3 0  9992
2    82 038.8631 185.4114 1176672 274.3163 072.4247 12.26016064748576
Epoch (UTC): 20 February 2019 19:57:17
Eccentricity: 0.1176672
inclination: 38.8631°
perigee height: 631 km
apogee height: 2501 km
right ascension of ascending node: 185.4114°
argument of perigee: 274.3163°
revolutions per day: 12.26016064
mean anomaly at epoch: 72.4247°
orbit number at epoch: 74857

The dashed part of the orbit path shows where the satellite is in the earth's shadow,  

DLR